| time (UTC) | temp F | wind direction | speed MPH | gust MPH | rain 1hr in | rain 24hr in | rain mn in | humidity % | barometer mb |
| 20260505041503 | 44 | 268 | 3.0 | 7.0 | 0.00 | 0.00 | 0.00 | 53 | 1007.2 |
| 20260505040002 | 44 | 260 | 2.0 | 8.0 | 0.00 | 0.00 | 0.00 | 52 | 1007.1 |
| 20260505034601 | 44 | 247 | 2.0 | 7.0 | 0.00 | 0.00 | 0.00 | 51 | 1007.0 |
| 20260505033059 | 45 | 251 | 1.0 | 4.0 | 0.00 | 0.00 | 0.00 | 51 | 1007.0 |
| 20260505031559 | 45 | 253 | 1.0 | 5.0 | 0.00 | 0.00 | 0.00 | 49 | 1007.0 |
| 20260505030055 | 45 | 243 | 2.0 | 7.0 | 0.00 | 0.00 | 0.00 | 48 | 1006.9 |
| 20260505024554 | 46 | 265 | 1.0 | 4.0 | 0.00 | 0.00 | 0.00 | 48 | 1006.8 |
| 20260505023050 | 47 | 263 | 1.0 | 7.0 | 0.00 | 0.00 | 0.00 | 46 | 1006.6 |
| 20260505021551 | 47 | 292 | 4.0 | 8.0 | 0.00 | 0.00 | 0.00 | 45 | 1006.3 |
| 20260505020044 | 47 | 293 | 4.0 | 10.0 | 0.00 | 0.00 | 0.00 | 45 | 1006.2 |
| 20260505014543 | 48 | 312 | 5.0 | 17.0 | 0.00 | 0.00 | 0.00 | 42 | 1006.0 |
| 20260505013040 | 49 | 315 | 10.0 | 21.0 | 0.00 | 0.00 | 0.00 | 42 | 1005.9 |
| 20260505011537 | 49 | 286 | 7.0 | 15.0 | 0.00 | 0.00 | 0.00 | 42 | 1005.8 |
| 20260505010037 | 50 | 317 | 10.0 | 20.0 | 0.00 | 0.00 | 0.00 | 42 | 1005.2 |
| 20260505004529 | 51 | 309 | 11.0 | 22.0 | 0.00 | 0.00 | 0.00 | 43 | 1005.0 |
| 20260505003025 | 52 | 355 | 13.0 | 27.0 | 0.00 | 0.00 | 0.00 | 40 | 1004.8 |
| 20260505001523 | 52 | 328 | 10.0 | 22.0 | 0.00 | 0.00 | 0.00 | 40 | 1004.4 |
| 20260505000020 | 53 | 314 | 12.0 | 24.0 | 0.00 | 0.00 | 0.00 | 39 | 1004.1 |
| 20260504234521 | 53 | 296 | 12.0 | 24.0 | 0.00 | 0.00 | 0.00 | 38 | 1004.0 |
| 20260504233016 | 53 | 274 | 12.0 | 23.0 | 0.00 | 0.00 | 0.00 | 39 | 1004.0 |
| 20260504231513 | 54 | 304 | 11.0 | 21.0 | 0.00 | 0.00 | 0.00 | 38 | 1003.8 |
| 20260504230012 | 54 | 337 | 11.0 | 25.0 | 0.00 | 0.00 | 0.00 | 40 | 1003.6 |
| 20260504224509 | 54 | 269 | 10.0 | 29.0 | 0.00 | 0.00 | 0.00 | 40 | 1003.4 |
| 20260504223006 | 55 | 275 | 9.0 | 26.0 | 0.00 | 0.00 | 0.00 | 40 | 1003.2 |
| 20260504221502 | 56 | 273 | 10.0 | 25.0 | 0.00 | 0.00 | 0.00 | 39 | 1002.7 |
| 20260504220002 | 57 | 334 | 13.0 | 31.0 | 0.00 | 0.00 | 0.00 | 39 | 1002.5 |
| 20260504214559 | 56 | 301 | 12.0 | 25.0 | 0.00 | 0.00 | 0.00 | 40 | 1002.1 |
| 20260504213059 | 57 | 309 | 11.0 | 26.0 | 0.00 | 0.00 | 0.00 | 39 | 1002.1 |
| 20260504211556 | 58 | 328 | 12.0 | 26.0 | 0.00 | 0.00 | 0.00 | 38 | 1001.8 |
| 20260504210107 | 60 | 287 | 6.0 | 20.0 | 0.00 | 0.00 | 0.00 | 37 | 1001.7 |
| 20260504204605 | 58 | 304 | 9.0 | 23.0 | 0.00 | 0.00 | 0.00 | 38 | 1001.5 |
| 20260504203106 | 60 | 337 | 12.0 | 23.0 | 0.00 | 0.00 | 0.00 | 37 | 1001.5 |
| 20260504201555 | 59 | 302 | 14.0 | 26.0 | 0.00 | 0.00 | 0.00 | 38 | 1001.3 |
| 20260504200053 | 59 | 284 | 9.0 | 22.0 | 0.00 | 0.00 | 0.00 | 40 | 1001.1 |
| 20260504194601 | 59 | 297 | 13.0 | 26.0 | 0.00 | 0.00 | 0.00 | 38 | 1001.2 |
| 20260504193052 | 61 | 327 | 8.0 | 21.0 | 0.00 | 0.00 | 0.00 | 38 | 1000.9 |
| 20260504191551 | 60 | 329 | 9.0 | 25.0 | 0.00 | 0.00 | 0.00 | 40 | 1000.5 |
| 20260504190116 | 60 | 338 | 10.0 | 25.0 | 0.00 | 0.00 | 0.00 | 38 | 1000.6 |
| 20260504184551 | 59 | 294 | 13.0 | 25.0 | 0.00 | 0.00 | 0.00 | 37 | 1000.4 |
| 20260504183051 | 60 | 292 | 10.0 | 23.0 | 0.00 | 0.00 | 0.00 | 35 | 1000.1 |
| 20260504181550 | 59 | 292 | 16.0 | 26.0 | 0.00 | 0.00 | 0.00 | 35 | 1000.1 |
| 20260504180049 | 60 | 271 | 5.0 | 23.0 | 0.00 | 0.00 | 0.00 | 37 | 999.6 |
| 20260504174548 | 61 | 290 | 10.0 | 24.0 | 0.00 | 0.00 | 0.00 | 37 | 999.4 |
| 20260504173047 | 60 | 266 | 13.0 | 26.0 | 0.00 | 0.00 | 0.00 | 38 | 999.4 |
| 20260504171546 | 62 | 305 | 11.0 | 19.0 | 0.00 | 0.00 | 0.00 | 39 | 999.2 |
| 20260504081533 | 56 | 186 | 8.0 | 14.0 | 0.00 | 0.00 | 0.00 | 45 | 998.5 |